Theta_e
323 324 325 326 327 328 328 329 328 329 329 330 330 330 330 330 330 329 330 331 330 331 331 331 329 330 330 330 329 330 329 330 330 331 332 334 335 334 333 332 332 332 332 332 330 328 330 330 331 331 331 329 328 328 329 328 328 328 327 327 326 325 325 326 326 325 322 321 323 323 324 326 325 322 321 322 322 321 321 321 320 320 320 319 319
319 319 321 323 324 327 327 327 325 326 327 328 329 329 330 330 329 329 330 331 330 331 331 331 332 331 330 330 331 331 330 328 328 329 330 332 333 334 334 332 332 332 330 331 331 331 330 330 331 331 330 329 329 329 329 326 330 328 328 325 327 324 324 326 325 323 320 318 317 317 319 321 321 320 320 321 321 321 321 320 320 320 319 318 318
313 316 319 320 323 324 325 326 327 327 327 327 329 329 329 330 330 330 331 330 331 331 332 331 333 333 333 333 332 331 333 332 331 331 331 331 332 332 333 332 332 332 331 331 331 331 331 332 332 331 330 330 328 328 329 328 328 327 328 324 324 325 324 326 324 323 319 319 317 314 315 315 318 319 319 321 321 320 320 320 319 319 317 318 318
309 311 314 318 320 322 324 324 325 326 325 326 327 328 328 329 330 331 331 332 332 331 329 333 334 334 334 334 334 333 331 332 332 332 332 332 331 333 333 333 333 332 332 331 331 331 332 331 332 331 331 331 330 328 328 327 328 328 328 326 325 322 322 322 323 323 321 318 313 314 315 314 311 315 316 320 319 320 320 318 319 318 318 317 317
307 309 311 313 316 319 321 323 325 325 325 326 326 327 328 329 330 331 331 331 332 331 331 333 333 333 334 334 334 334 334 331 329 329 331 331 331 332 332 333 332 331 332 332 330 331 332 332 332 332 332 331 330 328 327 328 329 329 328 327 325 323 322 323 322 322 321 322 319 313 314 312 312 314 315 316 318 318 318 318 318 316 316 316 315
305 307 309 311 312 315 319 322 323 324 325 326 328 328 329 329 330 331 332 332 332 333 333 332 331 331 330 328 326 326 326 326 325 326 328 329 329 331 332 332 333 332 333 334 332 330 331 332 332 332 332 331 330 328 328 328 328 328 328 327 325 325 323 322 320 316 317 317 317 319 318 314 313 313 312 309 318 319 318 317 317 317 316 315 314
304 304 306 307 310 311 314 318 321 322 324 327 328 328 329 329 330 331 331 332 333 332 333 331 331 330 330 329 329 327 327 327 328 330 330 330 331 330 330 331 332 331 331 332 332 331 332 332 331 330 330 330 330 329 327 327 328 328 329 327 326 325 323 319 319 320 314 314 314 315 316 316 317 313 310 311 308 314 317 316 316 316 316 314 313
305 305 305 305 307 309 310 313 317 320 323 325 327 328 328 329 329 330 331 330 332 332 332 331 330 330 329 329 328 328 328 328 329 329 331 330 329 329 329 329 330 332 331 330 331 331 330 331 332 331 330 331 330 330 328 327 327 328 328 327 326 324 321 319 320 319 315 316 314 314 315 315 314 315 315 312 309 307 309 315 316 315 314 313 312
304 305 305 305 306 307 308 311 314 318 321 323 325 327 328 329 329 330 330 330 330 331 330 330 329 330 329 329 328 328 329 329 330 329 329 329 328 328 328 329 329 331 331 331 330 330 328 329 331 331 331 330 329 330 329 329 328 327 324 323 322 321 321 321 321 319 318 317 313 314 315 313 312 313 313 313 309 306 307 309 309 312 312 312 310
303 303 304 305 306 307 308 308 309 313 317 321 323 325 326 327 327 327 328 329 329 330 329 330 330 328 328 328 327 328 328 329 330 329 329 329 326 327 327 328 328 328 329 330 330 330 330 329 329 330 331 331 329 330 329 327 326 326 324 322 321 320 321 320 321 321 319 320 318 317 314 311 310 309 309 309 309 310 306 307 307 306 304 307 309
302 303 303 303 304 305 306 305 306 308 313 315 317 320 323 325 326 326 327 328 328 328 328 328 329 328 328 328 327 327 328 328 327 327 328 327 325 326 327 328 328 327 328 327 328 329 330 329 328 328 329 327 326 327 327 325 324 323 323 323 322 322 320 320 320 320 319 318 318 317 315 314 313 311 308 308 308 306 305 304 305 306 305 304 307
300 300 301 302 302 303 304 303 304 306 308 310 315 318 320 323 324 324 326 326 328 328 328 327 327 327 328 328 328 327 327 327 326 325 326 326 325 326 327 327 326 326 326 326 325 327 327 327 327 327 326 326 325 326 326 326 324 324 323 323 322 322 322 320 319 318 318 318 318 317 317 317 317 315 314 312 310 308 307 305 304 305 304 305 307
301 302 303 302 302 303 303 303 303 304 304 306 310 314 318 320 322 323 324 326 327 327 327 327 327 327 327 327 328 328 328 328 327 326 327 326 325 326 325 324 324 324 324 324 324 325 325 325 325 325 324 324 325 325 324 323 323 322 322 322 321 320 319 319 318 318 317 316 316 316 316 316 315 316 315 312 310 309 307 303 304 304 299 301 303
302 302 302 302 302 302 302 302 302 303 304 305 306 310 314 317 319 321 322 325 326 327 327 326 326 327 328 327 328 328 328 328 328 327 327 327 326 326 326 325 324 324 323 323 325 324 323 324 324 325 325 324 324 323 322 323 323 322 320 320 319 319 319 319 319 317 317 317 316 314 314 313 313 313 312 311 309 307 304 303 302 301 300 298 301
302 302 302 301 301 301 302 303 303 303 303 303 304 306 310 313 316 318 320 322 325 325 326 325 325 326 327 327 327 328 328 328 328 328 328 327 326 326 327 326 326 325 325 325 325 323 322 323 323 323 323 323 323 321 320 321 321 321 320 319 319 319 318 317 315 315 313 313 314 313 311 310 309 309 310 309 309 307 305 303 301 296 297 299 297
303 302 303 303 303 303 303 303 303 303 303 302 303 305 307 310 313 316 318 320 323 324 325 325 325 326 327 327 327 327 327 328 327 328 328 328 326 326 326 326 327 327 325 324 323 322 321 321 321 321 321 321 320 319 318 318 318 318 317 317 316 316 317 316 314 313 313 313 312 311 310 307 307 307 307 306 306 305 304 303 302 298 293 291 296
303 303 303 303 303 303 303 303 303 303 302 303 303 304 306 308 311 313 316 319 321 323 323 324 324 324 325 326 327 327 327 327 327 328 328 329 327 326 326 326 326 326 324 322 321 320 320 320 319 319 319 320 319 318 317 317 317 315 315 314 313 313 314 313 313 312 310 310 309 308 308 304 303 303 303 303 303 302 302 301 300 298 298 291 290
301 301 301 301 301 302 302 303 302 302 303 303 303 304 306 308 309 311 313 316 319 321 322 322 323 323 324 325 326 326 327 327 327 327 328 327 326 325 325 323 323 323 321 319 319 319 318 315 319 317 317 317 316 316 316 316 315 314 313 313 312 311 310 310 310 309 308 307 305 305 305 301 301 302 301 300 299 299 299 299 299 299 298 293 291
303 302 302 302 303 304 304 304 304 302 302 303 304 304 305 306 308 311 312 315 317 320 321 321 322 323 324 324 325 325 326 327 327 328 327 326 324 323 323 323 322 321 319 317 317 316 316 316 318 316 315 314 314 314 313 313 313 312 312 311 310 310 308 306 306 307 305 304 302 302 302 300 299 298 298 297 296 297 297 297 296 296 297 296 293
303 302 302 302 302 302 303 303 304 304 304 303 303 303 303 304 306 308 311 314 316 318 319 319 321 321 323 324 324 325 325 325 326 326 325 323 323 322 321 321 320 317 317 316 315 313 312 312 313 313 313 313 313 313 313 313 312 311 309 309 307 308 306 304 303 304 303 303 301 299 299 297 296 295 294 294 294 295 295 295 295 294 293 293 292
304 303 302 302 301 302 303 303 302 301 300 299 300 302 304 304 304 305 307 309 312 314 317 318 319 320 320 321 322 322 323 323 323 323 323 321 321 321 321 320 318 314 314 313 312 312 312 312 311 310 310 310 310 308 309 310 309 307 306 306 304 305 304 302 300 299 300 300 299 297 295 294 294 292 292 292 292 292 292 292 293 292 291 290 291
302 302 301 301 302 302 303 302 301 299 300 301 302 302 303 303 303 303 304 306 309 312 314 315 317 319 319 320 320 321 321 321 320 320 320 321 321 319 318 317 314 313 312 311 311 311 310 312 311 311 309 308 308 307 307 308 306 303 302 303 303 305 302 298 297 295 296 296 296 294 292 291 293 292 291 291 290 290 291 291 290 291 291 290 290
300 300 301 301 302 302 301 299 297 298 300 301 301 302 304 305 304 304 304 304 307 310 313 314 315 316 317 319 319 318 318 317 317 316 316 317 317 316 316 313 312 310 309 310 310 309 309 309 309 309 308 306 306 305 305 306 305 303 301 300 303 303 299 295 296 294 294 294 293 292 290 290 291 290 290 290 289 290 291 290 289 289 289 289 289
300 300 300 302 301 299 298 300 301 302 302 302 302 302 303 303 303 303 304 305 306 308 310 311 313 314 316 315 315 315 314 314 314 314 314 315 315 314 312 312 310 308 307 307 308 307 306 305 306 304 303 303 303 302 303 305 307 305 302 300 300 299 297 296 295 294 293 293 293 291 290 290 291 291 290 289 289 290 290 289 289 289 288 288 288
300 302 303 303 302 302 304 304 303 303 302 302 302 303 302 303 303 302 302 303 304 306 307 309 310 310 311 312 312 312 312 312 312 312 313 313 311 311 309 310 308 306 306 304 302 304 304 304 303 301 300 300 300 300 302 303 304 304 302 299 298 296 296 295 295 295 291 293 292 291 291 291 291 291 290 289 289 289 289 289 289 289 288 289 288
300 301 303 304 302 302 301 301 302 302 301 301 301 301 302 302 303 303 302 302 302 303 305 306 307 308 308 309 309 309 310 310 310 310 310 309 307 306 306 306 305 304 301 301 301 300 301 301 301 300 299 298 297 298 300 300 300 300 298 297 294 294 295 295 295 294 292 292 291 291 291 291 291 290 290 290 290 289 289 288 288 288 288 287 286
299 300 301 300 301 303 305 304 302 301 301 300 299 301 301 301 302 302 302 302 302 302 303 305 306 307 306 307 307 307 308 308 307 307 304 303 303 302 302 302 300 300 298 297 296 298 297 299 298 298 298 297 296 297 297 298 297 297 296 295 293 293 294 294 294 292 291 291 291 290 290 290 291 291 290 289 289 288 289 288 288 287 287 287 286
299 300 300 301 302 304 305 304 302 301 299 299 299 298 300 301 301 301 300 300 301 302 303 303 304 304 305 305 304 304 303 303 303 301 300 299 299 298 299 298 297 297 297 297 297 297 296 297 296 296 296 296 296 296 296 296 293 293 295 295 293 293 293 291 290 290 290 290 290 290 290 290 290 290 289 289 289 288 288 287 287 287 287 286 286
300 301 302 302 303 304 304 303 302 300 298 299 299 299 298 298 299 301 300 300 301 301 301 302 302 303 304 304 303 300 301 299 297 297 297 297 296 296 296 296 296 296 297 296 296 296 295 295 296 296 295 295 296 293 293 294 292 293 294 294 294 292 290 289 289 288 288 288 288 289 289 289 288 286 286 287 288 288 288 287 287 286 286 285 285
301 302 303 303 303 303 302 302 301 301 300 299 299 299 299 299 299 299 299 300 300 300 300 301 301 302 301 299 298 296 297 296 296 296 296 295 295 295 294 294 295 295 295 294 294 295 295 294 294 294 294 295 294 294 291 291 292 293 294 293 291 290 289 289 288 287 287 287 287 288 287 285 284 285 285 285 286 286 287 288 287 286 285 285 284
302 303 303 303 302 302 302 301 301 301 301 301 301 301 300 299 299 299 299 298 298 299 300 300 300 297 295 294 294 294 293 294 295 295 294 294 294 293 293 293 293 293 292 292 292 292 293 294 293 292 291 292 293 292 289 292 293 293 291 291 290 289 289 288 287 287 286 286 286 286 285 285 285 284 285 285 285 285 285 285 284 284 285 285 283
302 302 302 302 301 301 301 301 301 301 301 301 301 300 299 299 299 299 299 297 297 298 299 299 298 294 293 294 293 293 292 292 293 293 292 292 292 291 292 291 291 291 291 291 292 293 292 291 292 292 292 291 291 289 291 292 293 292 291 290 290 289 288 287 287 286 286 285 285 284 285 285 285 285 286 285 285 285 284 284 283 283 283 283 284
302 301 301 301 300 300 300 300 300 301 301 302 301 300 299 299 299 299 297 294 296 297 298 298 295 294 293 293 292 292 293 292 292 291 291 291 291 291 291 290 291 291 290 290 292 291 290 290 291 291 291 291 290 289 291 292 292 292 291 289 289 288 287 287 287 286 285 285 284 284 284 284 284 284 285 285 284 283 283 283 282 282 282 282 283
300 300 299 299 299 300 300 300 300 300 300 301 300 300 300 300 300 298 296 296 296 296 297 296 294 294 293 292 292 292 292 292 291 290 290 290 291 291 290 291 290 289 289 290 290 290 289 290 290 290 290 290 290 289 290 291 291 291 290 289 288 288 287 287 286 286 285 285 284 283 283 283 283 284 284 284 284 283 282 282 282 282 282 282 282
300 299 299 300 300 300 299 299 300 300 300 300 298 297 298 297 297 296 296 295 295 296 295 295 294 293 293 292 292 292 292 291 290 290 290 290 290 290 290 289 289 289 289 289 289 289 289 289 290 290 291 290 290 289 291 291 290 290 290 288 288 287 287 286 286 286 285 284 284 283 283 283 283 283 284 284 283 283 282 282 281 281 282 282 282
299 300 301 301 300 299 298 298 298 298 299 299 299 297 296 296 296 296 295 295 295 295 295 295 294 293 293 292 292 292 292 291 290 290 290 290 290 289 289 289 289 289 289 290 290 289 288 288 289 290 292 290 290 290 290 290 290 290 289 287 287 286 286 285 285 285 285 284 284 284 283 283 283 283 283 284 284 283 282 281 280 281 281 281 280
301 300 300 300 297 296 296 296 296 297 297 298 297 295 296 295 294 294 294 294 294 294 295 294 294 294 293 292 292 292 292 291 290 290 289 289 289 288 288 289 289 289 289 289 289 289 289 288 288 288 288 289 289 290 290 290 289 289 287 286 285 285 284 284 284 284 283 283 283 283 283 283 282 282 284 285 285 283 282 280 280 279 279 279 279
299 299 297 296 295 294 294 294 294 295 296 296 295 295 295 294 293 293 293 293 293 294 295 295 294 294 293 293 293 293 290 290 289 289 289 289 289 289 288 288 289 289 289 288 289 290 288 288 287 288 288 288 288 288 289 289 289 288 287 285 285 285 284 283 282 282 283 282 282 282 282 282 282 282 284 285 285 283 281 280 279 278 277 277 278
296 295 295 294 294 292 291 292 293 294 295 293 293 293 294 293 293 292 292 292 292 294 294 294 294 295 294 293 292 291 290 289 289 289 289 289 288 288 289 288 289 289 289 289 289 288 288 288 287 287 286 287 287 287 288 289 288 287 286 285 285 284 283 282 281 281 281 281 281 282 282 282 282 283 285 285 285 283 281 280 279 277 276 276 278
291 291 291 291 290 291 293 294 294 295 293 292 293 293 291 294 293 292 291 291 292 293 295 296 296 294 293 290 290 289 289 289 288 288 288 288 288 288 287 288 288 289 288 288 287 287 286 286 286 286 286 287 287 287 287 288 288 287 286 285 285 283 282 281 281 280 279 280 280 281 281 282 283 284 285 285 285 284 281 281 279 278 277 276 279
292 292 288 290 291 291 292 292 293 292 292 291 292 292 291 293 293 291 290 291 293 294 294 294 294 293 290 289 289 289 288 288 288 288 288 288 288 288 287 287 287 287 287 286 286 286 285 285 286 286 286 286 287 286 286 288 287 286 286 285 284 284 283 281 280 279 279 279 279 280 280 282 284 284 284 284 284 284 283 281 279 278 278 279 278
289 287 288 290 290 290 290 291 289 289 289 290 290 290 291 292 291 290 292 293 293 294 293 293 291 289 288 288 288 288 288 288 288 288 287 287 287 287 287 287 288 286 285 284 284 285 285 285 285 285 285 285 285 286 286 286 287 286 286 285 284 284 283 282 280 279 279 279 279 279 279 282 284 284 284 284 284 283 283 281 279 280 280 279 276
291 290 287 286 290 290 289 287 286 286 288 289 289 288 289 289 289 291 292 292 292 293 292 292 289 288 287 287 287 287 287 287 287 287 287 287 286 286 285 286 285 284 284 283 283 283 283 284 284 285 285 284 285 285 285 285 286 286 285 285 285 284 283 283 281 279 279 279 279 279 280 282 283 283 283 283 283 283 282 280 280 280 279 278 275
288 287 286 283 288 287 287 285 285 286 287 288 287 287 287 288 289 290 289 289 290 290 289 288 288 287 287 287 287 286 287 287 287 286 286 286 286 285 285 285 285 285 284 283 283 283 283 283 282 283 283 284 284 284 284 284 285 285 285 285 284 284 284 282 282 281 280 279 279 279 280 281 283 283 283 283 283 282 281 280 280 279 277 275 273
288 288 282 283 286 286 285 286 286 284 285 286 287 286 286 286 288 287 287 287 287 286 286 286 285 285 286 286 286 287 286 286 286 286 286 286 285 285 284 285 285 285 284 284 283 283 283 282 282 282 282 282 283 284 284 284 284 284 285 284 284 283 284 283 280 281 280 280 280 280 280 281 282 282 282 282 282 281 280 280 279 277 275 273 272
285 286 283 281 283 283 282 284 285 284 284 283 284 285 286 287 286 285 285 285 285 285 285 284 284 284 284 283 284 284 284 284 285 286 286 286 285 285 285 285 285 285 284 284 283 282 282 282 282 282 281 281 282 283 283 283 283 284 284 284 283 283 283 282 280 279 279 280 280 280 281 281 281 281 280 280 280 279 278 278 276 274 272 272 271
286 282 281 284 283 285 282 281 283 282 282 281 281 281 281 283 283 284 283 283 284 284 283 283 282 283 282 283 284 285 284 283 284 285 286 286 285 285 285 284 284 284 284 284 283 282 282 282 281 282 281 281 281 282 282 282 283 283 283 283 283 282 282 280 278 279 279 279 280 279 279 280 280 281 279 277 276 277 276 274 272 271 270 270 270
279 279 279 281 281 282 280 281 282 280 279 279 278 278 278 279 281 281 281 282 283 283 283 282 281 282 283 283 284 280 282 284 284 284 285 285 285 285 285 284 284 285 284 283 283 282 282 281 281 281 280 280 280 281 282 282 282 282 282 282 282 281 280 278 277 278 278 279 279 279 279 279 277 276 275 275 274 274 272 270 270 269 268 269 270
281 279 279 282 281 280 280 280 279 278 277 277 276 277 277 277 278 279 280 282 282 280 280 279 280 281 281 281 283 282 283 284 283 283 284 285 285 285 285 285 285 286 286 285 283 283 283 283 283 282 281 280 280 280 281 283 282 282 282 281 281 280 280 279 278 279 277 277 277 277 275 274 274 273 272 271 270 270 269 268 267 267 267 267 268
278 278 277 276 276 278 279 278 277 276 276 276 276 276 276 276 277 278 279 280 279 280 280 279 280 281 280 281 282 282 281 282 282 283 282 281 278 281 283 285 285 283 282 283 284 284 284 284 283 284 283 282 281 282 282 283 282 283 283 283 282 281 281 279 279 280 276 274 274 273 273 273 272 272 271 270 269 268 267 266 266 267 267 267 267
280 280 277 277 277 277 277 276 276 275 274 274 274 274 274 274 275 276 277 278 278 281 281 279 279 280 279 280 280 281 281 281 282 282 282 281 281 281 281 280 281 282 282 282 282 283 283 284 283 283 283 282 281 281 282 282 282 283 283 283 282 281 281 280 280 277 274 273 273 272 271 272 271 271 270 270 268 267 267 267 266 266 267 266 267
Wind_Speed
7 9 11 12 12 12 12 12 13 16 17 17 17 18 18 17 15 17 15 15 14 13 13 10 11 11 12 13 13 12 10 9 9 10 10 10 11 10 8 8 8 9 9 8 8 8 7 6 7 7 6 6 6 7 9 10 9 7 6 5 6 8 7 6 5 3 6 6 5 4 5 4 2 2 1 1 1 1 1 2 2 2 2 3 3
3 7 10 11 11 12 12 13 15 17 17 18 19 19 19 19 18 16 14 14 15 14 12 12 13 12 12 12 10 9 9 11 10 9 9 8 11 11 10 8 9 8 8 9 9 9 8 8 8 7 7 6 6 7 8 7 4 5 6 8 5 7 7 5 3 3 5 5 4 3 4 2 2 1 3 2 1 2 2 2 2 3 3 3 4
8 12 10 11 12 13 13 14 15 17 16 18 19 19 18 18 18 16 14 15 14 14 13 13 13 13 14 12 12 11 11 9 9 9 9 10 11 12 11 8 10 9 9 9 8 8 8 8 7 7 8 7 7 8 11 10 7 7 8 8 7 6 6 5 4 5 4 1 1 2 4 2 4 3 3 1 2 3 3 2 3 2 3 3 4
11 12 12 12 12 12 13 13 14 14 16 17 18 19 17 17 18 19 18 16 15 15 13 15 15 15 15 14 14 14 11 10 11 11 11 12 12 11 12 12 11 10 9 9 8 9 10 10 8 9 10 9 8 10 11 11 10 10 8 7 8 8 6 5 5 6 5 3 3 4 1 2 5 5 4 2 2 2 0 2 2 2 1 2 4
11 12 10 10 12 14 16 15 13 14 16 16 17 17 15 20 20 20 18 18 17 15 16 15 14 13 12 11 11 9 9 11 11 12 11 11 10 12 13 12 12 11 10 11 10 11 12 10 10 11 12 9 7 10 10 11 11 11 10 7 9 8 8 5 4 4 6 5 4 2 4 4 3 2 2 5 4 3 2 1 2 2 2 3 3
11 12 11 10 12 12 12 12 13 13 15 16 16 17 17 16 18 18 15 15 16 18 19 16 15 14 12 13 15 16 16 14 16 14 11 13 13 9 9 11 11 11 11 12 10 10 12 13 11 11 9 10 10 9 10 10 11 11 10 9 9 10 8 5 5 3 5 5 5 4 4 4 3 2 3 3 2 4 2 3 2 1 2 3 2
10 12 12 9 11 12 12 13 15 16 18 15 14 16 19 17 16 17 16 14 15 16 18 15 17 15 17 16 15 16 17 13 11 10 11 10 8 11 10 10 12 12 11 10 12 11 11 12 12 10 7 9 11 9 9 10 10 10 8 9 9 8 7 6 7 5 2 4 5 4 2 2 1 2 3 2 8 0 2 0 1 1 1 1 1
10 12 14 13 12 12 14 16 15 17 16 13 14 15 18 18 16 17 15 14 13 14 16 19 17 18 17 18 16 17 17 16 12 13 13 10 10 11 10 9 11 12 11 11 9 8 8 9 11 12 10 8 6 6 7 9 7 6 8 9 8 6 7 6 7 5 5 4 3 3 5 3 2 3 4 4 5 7 6 2 3 2 2 2 2
12 10 13 13 14 13 13 12 12 12 10 13 15 13 13 13 14 13 14 13 13 16 18 20 19 16 18 16 16 15 16 15 12 11 11 11 12 10 10 10 10 12 12 11 12 12 9 9 11 12 11 11 7 8 9 10 9 9 8 7 7 6 6 7 6 6 6 5 5 4 4 4 4 3 4 3 3 4 6 5 5 5 2 4 2
9 12 10 9 8 9 9 9 8 12 12 11 10 9 10 10 12 15 16 14 14 17 19 19 21 17 18 19 20 17 14 11 12 14 13 10 13 11 10 10 10 10 11 11 12 12 11 11 9 10 11 11 10 10 9 9 7 8 8 7 7 7 6 7 7 5 6 6 6 6 6 5 4 3 3 5 3 4 5 4 4 6 5 2 3
5 7 9 10 9 9 8 12 14 11 7 9 11 11 12 12 14 16 18 14 15 17 19 20 19 19 19 20 21 21 17 15 15 15 14 11 12 12 11 11 10 10 9 9 10 10 11 10 8 9 7 6 7 9 9 8 7 6 6 9 9 9 7 7 7 6 6 6 7 7 6 6 5 6 7 6 5 4 4 5 5 4 5 6 1
6 6 8 8 7 7 7 10 11 9 5 9 10 11 11 12 13 17 17 17 16 16 17 19 20 21 21 20 20 20 19 16 17 18 15 14 13 12 12 10 10 8 8 9 10 10 9 8 9 9 8 6 7 7 8 8 7 7 7 8 8 9 7 8 7 7 8 6 8 6 6 6 6 6 5 6 6 5 6 5 4 3 5 5 3
6 6 6 5 6 6 7 9 8 9 9 10 11 10 11 12 15 16 17 17 17 17 18 21 19 20 21 21 20 17 19 19 19 18 16 16 13 14 12 12 9 10 10 9 10 11 9 9 9 9 7 7 7 8 7 7 7 7 8 9 8 9 8 8 7 7 8 7 7 6 5 5 5 4 4 5 4 4 5 5 5 3 4 2 1
7 6 6 6 5 5 5 5 6 6 8 9 10 10 10 11 14 16 19 16 16 16 18 18 20 21 20 19 18 16 17 18 18 17 17 16 15 15 14 12 11 13 11 11 11 10 8 9 9 9 9 8 8 7 8 9 9 9 8 8 8 7 7 8 7 7 7 7 6 6 6 5 4 3 4 4 5 6 6 7 5 3 4 3 1
5 5 6 6 6 6 6 6 6 7 8 8 9 10 10 12 13 16 17 16 16 17 16 18 18 21 19 17 17 15 16 17 16 15 15 16 15 15 14 13 13 13 13 12 12 10 11 9 8 8 8 9 9 8 7 8 9 8 8 8 7 6 7 7 6 8 7 8 7 7 6 5 4 4 4 4 4 5 5 5 5 3 4 5 3
4 5 5 6 6 5 5 5 6 6 8 8 10 9 10 12 12 15 15 14 14 14 15 16 18 16 17 19 18 17 13 13 13 11 13 13 14 14 14 14 13 13 12 10 9 9 11 10 8 8 8 9 9 10 10 9 9 9 8 8 8 5 7 8 7 8 8 9 9 7 6 5 4 4 4 3 4 4 4 4 4 3 2 1 2
5 5 5 6 5 5 5 6 5 5 6 7 8 8 10 10 11 13 13 12 13 14 16 15 16 17 17 18 18 16 18 16 15 16 15 12 13 13 13 13 13 12 9 8 10 11 9 9 8 9 10 11 11 11 10 10 9 7 7 8 7 6 7 8 7 8 8 8 7 7 5 5 5 5 4 4 4 4 3 2 3 3 1 2 1
6 6 5 5 5 6 5 5 6 6 7 7 8 8 7 8 10 12 12 13 13 12 13 15 16 16 17 16 16 16 15 15 14 13 11 12 11 10 10 9 11 9 8 9 9 11 9 10 10 10 10 11 11 11 12 11 10 6 7 6 7 8 8 7 8 8 8 6 6 6 6 5 5 5 4 5 4 4 4 4 3 2 2 2 1
4 5 4 4 4 4 4 5 5 5 6 7 6 6 6 8 9 10 12 12 12 10 11 13 15 13 10 12 13 12 10 9 9 8 7 12 12 10 11 10 9 8 8 9 10 9 10 10 10 11 11 10 9 9 9 8 7 6 7 8 8 9 8 7 6 7 6 6 7 7 6 6 6 6 5 5 3 4 3 3 3 3 2 1 1
4 4 5 5 5 5 5 5 5 4 3 3 5 5 7 7 7 9 9 8 8 10 10 12 13 14 9 9 10 8 9 10 9 13 12 11 11 10 10 10 10 8 10 11 10 11 10 11 10 11 11 10 10 7 7 7 6 6 7 8 8 10 9 8 6 6 6 6 7 7 6 6 6 6 5 5 4 3 3 3 3 3 3 1 1
5 5 5 5 6 5 5 3 3 4 4 4 4 5 5 5 6 7 8 9 9 9 10 13 12 14 13 14 12 11 11 9 9 10 10 10 10 10 11 11 9 12 10 11 11 12 12 12 12 11 11 11 9 8 6 7 7 7 7 8 8 8 7 7 7 6 6 7 7 8 7 6 6 6 6 6 5 5 4 3 3 3 4 3 2
6 5 5 6 6 5 4 2 2 4 5 5 5 5 5 6 5 5 6 7 8 9 9 11 11 11 13 13 12 10 10 9 10 10 11 10 10 9 10 9 11 11 10 12 12 11 11 12 13 13 11 11 11 9 8 8 8 8 7 6 8 10 9 6 7 7 6 6 8 9 7 7 7 7 7 6 6 5 5 5 4 3 3 3 2
6 6 5 5 6 5 5 5 5 5 6 6 7 7 5 5 4 5 6 7 7 7 8 9 10 11 11 10 8 9 9 10 10 9 10 10 9 10 10 11 10 10 10 11 12 11 11 11 12 12 12 11 11 11 10 9 10 10 10 8 8 10 10 9 8 8 8 7 8 8 9 8 7 7 7 6 6 5 4 5 5 3 3 3 3
5 5 5 5 5 4 5 5 5 5 6 6 7 6 6 6 5 5 6 6 6 6 7 9 10 10 9 7 8 7 9 10 11 10 11 11 10 10 10 11 11 10 11 9 10 12 11 12 12 10 11 12 11 12 10 11 13 12 11 10 9 9 9 8 8 9 9 9 9 8 8 9 8 7 6 6 5 5 5 5 5 4 3 3 3
4 5 5 5 4 5 6 5 5 5 5 5 6 6 6 7 6 6 7 6 6 6 7 8 9 8 7 7 8 8 9 10 11 9 11 11 10 9 10 11 10 10 10 10 8 8 12 12 12 13 12 10 11 11 11 10 10 11 11 10 10 10 10 9 10 10 10 10 8 8 8 8 8 7 6 6 6 7 5 5 4 4 3 3 3
5 6 5 6 6 6 7 6 5 5 5 4 5 6 6 6 7 7 6 6 6 6 7 8 8 8 7 8 8 8 9 10 10 9 10 9 9 9 9 8 9 11 9 8 10 9 10 11 11 12 11 10 10 10 11 10 10 10 10 10 10 10 9 10 10 10 9 7 8 7 8 8 8 7 7 6 7 7 6 5 5 4 3 3 3
6 6 5 6 8 8 8 6 5 5 4 4 5 6 7 7 7 6 6 5 6 6 6 8 8 9 7 8 8 8 7 8 8 7 6 7 8 8 9 9 8 9 11 10 8 9 9 11 10 10 10 10 10 10 10 10 11 10 12 11 10 9 10 10 10 8 7 6 6 6 7 7 6 6 7 7 7 7 5 6 5 5 4 3 3
5 6 7 7 8 9 7 5 4 4 4 4 5 7 7 7 8 5 4 5 5 6 7 7 7 7 8 8 7 6 6 6 6 5 6 7 7 7 8 7 8 10 10 11 13 11 9 9 10 10 9 9 10 10 9 11 12 13 11 10 10 11 12 10 7 7 6 6 5 5 6 5 5 5 6 7 7 7 6 6 5 4 4 4 3
7 8 7 7 8 9 8 5 3 3 4 5 5 6 7 7 6 5 5 6 5 6 7 6 6 7 7 6 6 5 5 6 6 6 7 7 7 7 7 8 8 9 9 10 9 11 11 9 9 9 9 9 11 12 11 13 15 11 10 12 12 11 10 9 8 7 6 6 6 5 5 4 4 5 6 5 5 5 6 6 5 5 5 4 3
10 10 8 7 8 8 7 6 4 4 5 5 5 6 6 7 7 6 6 5 4 6 5 5 6 6 4 3 4 3 4 5 6 8 8 8 8 7 8 8 8 8 8 8 9 9 11 14 12 9 10 10 11 11 13 17 15 11 13 11 9 9 9 9 9 9 7 6 6 5 4 7 8 8 8 8 8 6 3 4 5 5 5 4 3
10 8 7 7 7 8 7 6 5 4 5 5 6 5 5 6 7 7 6 5 5 6 5 5 6 3 2 2 2 3 2 4 5 5 5 6 7 7 7 8 8 8 9 9 9 9 10 11 12 13 13 11 11 9 15 15 17 16 10 9 10 9 9 9 9 9 9 8 7 7 7 7 8 8 8 9 9 9 8 8 5 3 2 4 4
10 8 6 7 7 7 7 8 7 5 5 5 5 5 5 7 8 8 7 6 6 6 6 6 5 4 4 4 4 3 3 2 2 4 5 5 6 7 8 8 8 9 7 7 10 11 11 11 10 10 10 10 10 10 16 17 16 16 14 10 8 9 8 8 8 8 8 8 9 8 7 6 6 7 8 8 8 9 9 8 6 5 4 3 3
8 9 7 6 6 6 8 9 7 6 6 7 5 5 7 6 7 9 6 7 7 7 6 6 5 6 6 5 5 5 5 4 4 5 5 6 7 7 8 8 9 8 8 10 10 10 10 9 9 10 9 9 9 12 16 18 16 17 16 12 7 8 9 9 9 8 9 9 9 8 7 5 5 7 7 7 7 7 8 7 5 5 4 4 4
8 6 6 7 5 5 6 7 8 8 7 7 4 6 5 4 6 6 8 8 8 7 7 6 6 6 6 5 5 6 6 6 5 5 5 6 6 8 6 6 5 5 8 8 7 9 7 8 8 8 8 7 7 13 18 18 17 18 15 10 7 8 8 8 8 9 8 9 9 9 8 7 7 7 6 7 7 7 7 6 5 4 4 5 4
8 7 5 7 7 6 8 8 7 6 5 3 4 5 4 4 6 8 8 8 8 8 8 8 8 7 7 6 6 6 7 6 7 7 7 7 7 6 5 4 4 6 8 8 8 7 5 6 7 7 8 8 8 16 19 19 18 19 15 8 8 7 7 7 6 7 8 8 9 7 8 8 9 8 6 8 8 7 6 5 4 4 4 4 3
7 7 8 7 4 5 8 10 7 6 5 4 5 2 4 4 5 7 7 7 8 8 8 8 7 7 7 6 7 7 6 6 6 6 6 7 6 6 7 5 5 4 3 4 4 5 8 8 8 9 11 10 9 19 19 19 20 18 15 6 8 8 7 7 7 7 6 6 7 7 7 8 9 8 10 12 9 7 7 6 5 5 4 3 3
9 6 8 4 3 5 6 7 7 6 7 5 3 2 3 3 5 7 7 7 7 9 8 8 8 8 8 8 8 8 8 8 7 7 7 6 7 6 4 4 6 6 7 7 7 7 7 7 8 8 9 9 10 17 18 19 19 18 13 6 6 6 6 7 7 6 6 6 6 7 7 7 8 8 11 13 12 10 7 7 6 6 4 3 3
7 5 5 4 3 3 4 4 7 7 5 3 2 3 4 4 6 6 7 8 8 9 7 7 8 8 8 7 7 8 7 7 7 8 8 6 5 4 6 6 7 7 6 5 6 6 6 6 7 8 8 8 8 14 18 17 16 18 8 9 8 7 7 6 6 6 5 5 5 6 7 7 8 8 13 14 13 10 7 7 7 7 5 5 4
2 3 3 3 4 5 7 6 5 5 2 1 3 4 4 5 5 6 6 8 8 6 5 6 6 6 6 6 7 6 5 6 7 7 6 6 6 6 5 4 3 3 4 5 5 5 6 5 6 6 7 8 8 12 17 15 15 16 12 6 7 7 8 6 6 6 5 4 6 7 8 7 7 10 15 13 14 11 7 8 7 7 6 7 6
1 1 1 3 4 5 5 5 5 5 3 2 3 4 3 4 4 5 7 8 7 6 5 5 4 5 5 4 4 5 5 6 7 6 5 5 4 4 5 5 4 4 4 4 5 4 8 4 3 4 6 6 8 8 13 14 15 16 14 10 6 9 8 8 6 7 7 6 6 6 8 11 12 14 14 14 14 13 8 8 8 7 7 7 5
2 2 0 1 2 3 4 5 5 5 4 1 3 3 4 4 3 5 7 7 6 4 4 4 4 4 3 4 4 5 6 5 5 6 5 5 4 5 5 5 5 3 4 3 4 3 3 3 3 2 3 3 6 9 11 14 15 16 16 11 7 6 7 8 9 7 7 8 8 7 7 12 15 14 14 14 14 14 12 8 8 7 6 5 7
2 1 2 1 2 2 3 3 3 5 4 1 1 2 3 3 3 5 6 4 5 5 5 5 5 3 3 3 3 3 4 5 5 5 6 5 3 4 5 6 4 4 6 6 4 4 4 4 3 2 2 3 4 7 6 14 13 15 16 13 7 7 7 9 8 6 6 6 8 8 7 13 17 15 14 14 14 14 14 9 8 9 8 9 5
0 3 1 1 2 1 2 4 4 5 4 2 0 2 1 1 3 3 0 2 4 4 5 5 3 3 3 3 3 4 4 4 5 5 6 6 5 5 4 4 5 6 6 6 5 4 5 5 4 4 3 3 4 5 9 9 13 14 15 15 9 6 10 6 8 9 10 8 7 7 7 13 16 15 14 14 14 14 12 8 10 10 9 9 6
1 1 1 1 1 1 2 3 4 5 4 3 2 2 2 2 3 3 1 0 1 1 2 3 3 3 2 3 2 2 2 2 3 4 4 6 6 6 6 5 6 7 7 6 6 6 6 6 6 5 4 4 4 4 7 10 11 14 14 14 13 11 13 6 5 5 6 6 7 7 8 16 16 15 14 14 14 13 9 11 12 11 10 8 4
1 1 2 1 1 2 2 3 4 6 5 4 3 2 3 3 3 1 0 0 1 2 2 2 2 3 4 3 3 3 3 2 3 4 5 6 6 7 6 5 6 6 6 7 6 7 7 7 6 6 6 5 6 6 6 9 11 12 13 13 12 12 13 11 6 3 4 5 6 10 12 15 14 14 14 14 12 13 12 12 12 12 10 4 4
0 1 3 2 1 2 3 4 5 7 6 5 4 3 3 3 2 1 1 1 2 2 1 2 2 2 2 4 5 4 4 4 5 4 4 4 5 6 6 6 6 6 6 6 6 7 7 7 7 6 6 6 7 6 6 6 7 8 9 12 12 13 12 12 4 4 7 9 11 12 14 14 13 12 11 10 9 9 12 13 11 10 5 4 4
2 3 2 2 2 3 4 5 6 6 6 5 5 5 4 4 4 3 3 2 1 1 2 2 1 1 1 2 4 3 4 3 4 4 5 5 6 6 6 6 7 7 7 7 7 8 8 8 7 7 5 6 7 7 6 7 7 7 7 8 9 9 11 10 6 5 8 7 9 9 8 10 8 13 9 6 6 9 9 8 7 6 4 4 4
2 2 2 2 4 4 4 5 5 5 5 5 5 6 6 6 5 5 4 2 2 2 1 2 2 1 0 1 1 2 3 3 4 5 5 5 6 7 8 9 10 10 10 9 8 8 9 9 9 7 7 6 7 7 8 10 10 9 8 8 8 7 7 7 7 7 7 7 7 8 9 7 5 6 6 7 6 7 7 5 5 4 4 3 4
3 3 4 3 3 5 5 6 5 4 4 4 5 5 5 6 5 5 5 3 3 3 3 3 1 1 1 0 0 1 2 1 2 2 2 3 5 6 6 5 3 4 6 7 9 9 8 7 7 9 10 9 7 9 13 11 9 10 9 9 10 10 8 8 8 11 7 6 6 7 7 7 9 9 8 6 6 6 5 5 4 5 5 4 5
3 3 4 6 4 5 5 6 4 3 3 3 4 5 5 6 5 5 5 4 3 2 2 2 1 0 1 1 1 1 1 1 1 2 2 1 6 6 4 2 3 0 4 6 4 4 3 3 5 5 5 6 7 2 7 12 10 12 12 10 5 3 6 7 11 16 8 6 6 6 7 8 9 8 9 8 8 7 6 6 6 7 6 5 5
2 4 7 7 5 5 6 6 4 3 3 4 5 5 6 6 6 5 5 4 3 1 1 1 1 1 2 1 1 1 1 1 1 1 1 2 1 1 5 6 6 4 1 2 1 3 3 5 4 4 3 4 3 4 11 14 14 15 15 14 11 11 13 13 17 12 7 7 8 8 8 8 8 8 8 8 7 7 7 7 7 6 5 6 5
Wind_Direction
219 211 212 210 211 210 209 213 217 219 220 218 217 217 217 216 214 218 213 213 215 215 213 206 206 210 214 216 217 215 210 208 212 215 222 226 226 225 214 207 207 201 201 198 203 207 214 219 221 221 216 217 223 221 223 234 242 239 245 237 246 259 259 244 245 250 275 279 262 282 293 279 277 271 260 191 117 98 90 63 57 70 65 49 32
207 227 221 212 210 208 208 216 217 217 218 217 218 217 217 216 216 216 214 212 213 214 212 210 210 210 209 216 215 213 210 206 211 210 214 218 224 224 224 211 205 204 201 201 204 207 209 212 214 217 210 215 222 233 228 234 218 213 225 249 231 254 261 254 237 229 248 258 296 307 287 255 108 284 200 129 135 117 106 65 59 65 47 30 12
238 239 228 215 210 206 203 211 214 218 219 218 220 217 216 215 216 214 214 213 213 212 212 212 212 214 213 216 211 221 220 213 207 206 203 213 214 218 221 214 207 205 199 198 203 204 212 213 210 212 210 211 212 227 235 232 228 222 223 242 252 235 258 261 233 228 266 1 225 264 235 278 177 170 191 272 103 121 138 86 59 72 63 23 358
237 234 225 213 205 206 209 211 210 210 218 222 220 217 216 217 217 216 217 214 212 211 211 214 213 216 217 222 221 221 217 213 211 209 210 212 219 213 220 221 216 214 198 198 205 210 209 212 214 226 227 216 226 240 234 234 232 233 226 227 251 260 228 236 231 224 232 214 249 213 337 274 282 188 207 243 72 134 116 45 62 38 44 21 350
238 243 231 210 204 209 208 209 203 205 212 214 213 212 213 214 214 213 214 215 214 208 206 211 214 216 217 221 227 225 222 221 215 213 208 209 212 213 218 212 214 216 213 211 204 215 222 218 216 222 227 218 212 236 237 235 234 234 228 224 228 238 248 245 212 213 221 214 243 203 222 247 269 42 289 270 167 195 188 290 12 359 353 349 0
243 245 239 217 211 215 214 210 205 209 213 214 209 210 211 213 212 211 212 212 210 210 210 207 210 213 212 214 216 219 223 211 210 208 205 211 211 206 205 202 207 212 215 216 200 204 217 222 224 223 217 220 224 231 236 235 233 235 234 235 232 230 246 252 245 197 221 222 227 260 328 303 322 127 328 293 276 260 235 208 293 331 313 342 16
232 249 255 239 220 214 212 209 208 212 218 212 207 210 210 213 210 207 207 207 207 207 207 207 211 211 212 210 211 213 218 220 210 206 207 211 208 207 204 198 203 210 215 219 218 203 205 215 220 220 219 215 222 229 233 234 234 233 229 225 226 224 213 225 229 226 178 236 230 245 287 43 128 161 225 279 302 32 187 162 150 141 310 332 51
230 231 239 239 236 214 216 212 208 213 215 205 209 211 210 211 208 206 208 209 206 203 205 209 211 213 215 217 218 221 220 223 205 210 211 209 207 208 201 201 201 212 214 212 214 213 207 201 208 216 212 221 203 195 214 227 226 228 222 215 214 199 196 208 219 193 195 206 185 207 212 195 144 212 227 241 273 300 311 1 121 49 345 120 116
224 230 237 232 230 229 226 221 219 221 212 207 211 213 215 218 216 214 213 210 210 206 211 210 215 214 216 218 220 223 224 223 219 214 213 210 212 203 199 199 202 208 212 211 210 213 205 210 213 211 210 218 214 218 224 222 215 213 202 205 202 200 195 210 211 194 199 194 153 192 187 176 156 171 179 174 178 233 280 309 328 356 21 120 81
235 244 251 250 244 246 243 249 240 223 220 216 216 213 213 213 215 216 218 214 211 210 214 212 215 217 218 219 221 223 219 219 216 219 216 206 209 201 199 202 203 205 208 210 211 208 205 205 211 215 209 212 215 222 219 216 212 212 200 191 193 191 194 197 203 187 193 196 194 185 180 156 148 146 159 168 176 222 272 299 328 327 324 4 17
255 257 259 263 255 253 240 234 238 236 219 220 223 220 217 215 216 217 221 219 216 215 215 216 214 216 220 221 222 224 219 216 214 219 218 204 205 200 200 203 201 204 201 204 206 205 204 200 204 210 216 208 197 204 205 203 197 192 192 189 189 188 186 189 192 194 190 198 199 193 204 191 200 195 175 177 175 183 225 261 275 270 280 300 23
237 238 248 243 247 237 236 246 245 246 232 221 222 219 217 216 215 219 221 217 214 213 213 217 218 218 221 222 221 221 219 216 213 215 208 204 198 200 201 198 200 196 198 200 203 204 201 202 202 206 206 196 198 203 199 193 186 189 183 184 185 190 189 181 179 179 189 194 205 211 224 235 231 220 178 185 208 224 212 226 237 259 270 254 299
258 244 239 238 235 233 224 236 235 234 230 226 224 220 219 221 218 219 222 215 215 211 211 215 213 217 219 220 221 219 218 218 217 215 211 207 200 201 195 197 190 196 198 198 202 201 200 202 198 200 196 197 200 198 189 176 175 173 177 179 178 185 190 188 193 200 202 208 209 206 206 207 208 201 198 208 206 197 207 221 228 225 245 262 277
266 278 280 276 265 260 261 269 262 251 238 235 232 223 219 218 217 218 225 216 213 210 209 213 218 219 215 215 217 215 216 216 217 216 214 213 206 203 197 193 194 198 198 201 203 199 196 201 202 203 199 195 188 182 174 180 179 174 171 174 179 191 196 197 198 182 195 205 188 182 185 185 171 185 195 187 189 193 206 211 210 209 234 265 287
259 262 261 264 265 257 256 252 252 249 247 240 234 228 225 226 221 221 224 219 213 211 210 216 221 223 223 219 219 216 216 217 217 216 215 212 209 204 203 201 201 203 203 205 201 195 198 196 193 191 188 185 178 172 167 169 175 172 176 174 179 182 181 173 163 165 172 173 183 184 165 157 154 153 168 179 192 205 207 202 193 199 198 209 225
282 283 275 264 260 254 250 246 249 252 250 246 239 232 227 230 229 229 227 223 217 212 213 219 226 227 226 225 222 220 217 216 218 214 217 212 206 204 203 202 204 204 205 199 193 190 192 188 178 185 177 177 174 169 165 168 168 169 170 178 180 184 194 187 175 174 176 175 172 172 167 142 138 139 134 134 163 192 200 193 206 234 262 239 187
292 286 287 290 285 269 251 250 249 250 253 245 244 237 233 233 234 235 235 232 226 219 219 221 228 228 227 227 225 221 220 217 217 216 214 211 207 204 205 202 201 202 194 185 187 181 177 175 175 175 173 176 173 169 166 169 169 163 172 177 177 174 189 179 174 174 166 161 159 161 152 141 129 128 126 129 150 185 200 185 203 211 250 257 305
291 282 268 269 276 280 277 260 247 244 237 246 250 246 244 243 239 236 234 231 229 226 221 224 227 227 229 228 226 225 224 223 222 219 207 210 204 197 198 194 197 193 180 179 174 178 175 172 176 175 170 169 169 169 170 169 169 157 161 162 165 163 163 161 164 159 156 155 142 137 147 134 133 135 142 159 173 186 180 182 183 200 226 251 304
311 321 314 302 280 279 271 273 280 273 275 273 278 270 256 245 243 244 241 233 227 224 221 226 228 227 223 225 225 224 217 215 216 213 203 211 201 192 195 193 186 181 174 172 178 176 175 177 175 172 171 169 163 159 155 156 151 152 162 161 160 169 163 157 155 156 152 148 144 137 138 130 131 133 144 163 169 174 164 153 149 160 180 240 225
305 302 305 297 291 279 276 279 279 283 287 290 286 281 272 265 256 247 249 249 239 229 218 223 224 224 215 213 216 216 212 210 208 212 209 207 200 193 190 188 187 155 177 177 177 176 174 173 171 169 168 165 166 159 160 148 149 156 165 165 165 170 162 154 145 150 151 143 136 139 141 142 137 143 158 164 161 146 146 145 144 137 122 106 180
294 300 302 300 297 295 292 293 294 294 281 273 267 268 267 257 253 253 247 243 238 236 232 231 228 226 219 215 212 208 206 201 199 204 205 198 195 194 194 191 175 177 173 178 180 178 175 174 167 167 167 166 166 159 157 151 149 158 167 166 161 163 136 153 144 136 136 145 148 148 143 138 145 153 159 161 158 150 142 137 145 146 140 146 187
286 295 304 302 298 292 283 294 287 283 275 259 249 250 247 239 237 235 240 245 237 232 227 232 231 230 224 218 212 203 200 196 195 195 201 198 196 194 187 174 182 181 180 181 181 179 176 175 171 170 169 168 169 160 157 155 151 156 160 162 166 168 154 149 147 143 143 140 147 150 142 144 159 165 164 159 155 156 159 149 152 154 146 147 155
283 291 293 287 285 286 293 292 282 268 264 259 253 242 243 251 252 248 243 245 238 243 236 233 230 228 225 218 205 200 194 194 194 194 197 194 190 188 182 180 182 181 186 184 180 176 174 173 171 170 169 166 168 166 157 157 158 159 167 168 165 164 157 154 153 149 150 145 148 153 159 163 168 166 163 155 154 155 154 143 138 141 142 144 165
275 276 261 261 282 290 291 278 258 243 240 241 247 250 253 254 254 257 255 260 254 244 239 236 234 232 223 212 207 197 196 196 198 196 197 196 190 188 181 184 183 177 181 186 181 172 169 168 168 156 158 158 167 160 164 170 172 170 169 168 165 157 155 157 159 159 158 164 164 159 169 173 175 168 160 154 156 154 150 142 139 144 151 163 178
268 274 285 291 286 287 279 270 259 253 248 252 250 248 247 247 243 241 247 248 248 244 239 236 233 228 220 214 209 198 198 200 200 198 200 194 190 184 182 184 175 178 179 167 169 173 168 166 165 154 158 164 166 165 163 166 165 170 168 163 164 153 154 160 167 172 173 172 165 170 165 173 178 160 156 155 155 152 147 144 143 149 160 164 183
283 284 296 308 310 299 279 264 261 254 250 256 261 256 255 250 244 239 242 243 242 242 240 239 234 228 220 216 210 205 206 204 203 201 198 190 184 180 179 179 174 171 162 168 167 169 171 166 164 168 165 161 162 165 165 164 161 158 156 153 130 130 155 164 174 179 176 167 167 165 165 175 176 165 156 149 148 147 143 144 148 153 158 177 190
283 288 286 292 283 276 272 274 265 277 266 260 263 261 259 258 252 238 236 240 243 240 234 230 229 226 219 218 211 209 208 206 202 197 184 180 180 177 173 172 171 164 162 161 170 167 168 159 159 159 163 159 163 166 166 162 159 159 150 151 154 154 161 170 180 168 162 151 154 159 168 179 175 162 150 152 149 148 146 147 152 153 165 183 190
268 272 273 275 284 286 281 280 291 281 276 263 260 258 254 252 252 243 235 236 232 235 236 228 221 223 218 217 213 204 201 198 189 179 179 181 176 173 175 164 159 163 169 169 166 168 163 153 155 164 163 162 162 164 165 161 131 136 155 161 159 163 170 172 155 147 140 147 155 158 166 172 162 152 150 148 151 149 146 147 152 159 169 181 183
282 275 271 278 289 301 307 311 311 295 271 260 253 253 249 247 249 247 233 229 226 230 238 234 230 230 225 217 207 199 192 181 174 172 172 174 174 170 163 162 168 169 170 170 165 157 153 150 156 162 162 167 170 163 154 155 146 159 159 164 168 168 159 147 143 136 137 148 152 145 150 153 122 108 107 121 131 137 150 151 156 166 175 173 165
280 281 283 286 292 300 303 309 296 272 267 250 250 243 240 245 243 236 228 229 211 227 237 245 241 241 243 233 214 199 189 178 174 176 178 171 167 165 161 165 169 166 163 161 158 165 160 156 159 167 167 165 161 160 168 164 164 160 166 169 162 153 150 145 140 137 142 147 141 129 115 113 124 125 122 126 130 128 109 131 152 167 175 162 152
279 277 283 294 297 295 298 293 289 278 264 257 245 243 234 240 238 230 222 203 194 220 224 231 238 244 239 231 216 212 185 188 187 169 160 159 156 155 159 162 161 162 163 163 159 162 167 162 158 149 154 165 155 165 165 166 167 166 163 155 153 149 147 142 142 148 152 148 140 133 133 136 132 131 135 137 134 129 119 110 113 137 154 159 156
285 288 288 292 292 303 308 302 300 291 268 251 246 232 220 228 226 222 211 180 192 208 211 218 216 186 190 193 198 181 185 186 158 164 159 158 153 157 163 163 160 159 162 163 168 169 162 127 126 157 169 159 133 162 167 169 172 173 174 161 151 145 146 145 147 150 148 145 145 144 149 153 159 156 150 144 139 132 127 128 140 148 136 133 159
275 287 290 288 293 290 286 287 283 274 268 253 241 235 227 217 214 218 183 165 191 199 201 205 198 191 193 190 180 180 178 166 174 164 162 158 164 166 167 166 171 170 149 165 166 152 141 117 153 162 167 168 167 169 170 173 176 174 171 164 143 144 144 149 154 152 150 150 149 149 151 158 151 150 155 150 146 140 131 137 148 146 145 153 171
270 265 282 291 280 270 269 270 279 281 268 277 249 239 243 216 208 193 188 197 191 197 199 202 191 198 193 185 179 178 177 174 163 161 162 167 170 175 173 169 152 140 156 155 145 153 147 154 161 161 159 165 166 177 176 175 176 172 167 157 141 142 141 146 152 153 152 153 154 153 155 160 163 168 161 154 155 149 148 160 177 178 168 172 181
283 290 260 249 267 284 287 287 282 278 281 275 257 235 240 206 205 203 200 192 195 193 201 197 193 193 186 183 179 178 176 169 167 167 169 173 176 165 157 153 150 156 157 161 158 159 161 160 167 170 167 172 185 176 180 178 173 174 161 135 134 124 132 141 145 150 151 149 153 155 160 160 163 168 166 164 160 160 156 165 171 183 183 179 191
254 261 275 273 287 294 295 294 308 306 284 252 264 221 219 223 210 212 202 206 200 204 204 195 197 191 188 183 177 178 173 169 167 167 173 175 174 170 164 154 149 154 155 150 155 164 167 175 179 179 183 185 179 177 177 174 171 166 151 134 138 140 139 145 150 153 149 146 151 155 156 161 163 164 169 172 168 156 158 167 174 188 186 192 209
252 240 269 308 343 286 284 294 295 292 291 279 262 211 212 205 217 218 208 211 210 215 209 198 197 191 189 184 183 178 175 172 174 175 182 180 171 166 164 161 160 168 167 173 174 178 179 178 177 178 178 176 171 174 172 168 166 157 149 139 132 133 138 143 149 144 143 146 158 164 165 159 160 165 171 173 168 159 159 175 181 189 188 202 216
265 308 285 297 302 292 277 279 291 292 285 291 242 200 197 202 217 215 214 220 219 223 210 198 202 193 188 186 186 183 179 177 176 186 185 181 173 169 170 171 173 171 174 176 170 176 180 180 177 180 181 169 165 172 170 164 158 163 148 136 146 141 138 140 133 136 141 152 160 162 163 163 164 166 172 174 172 169 169 180 185 186 188 206 211
253 272 296 326 326 317 302 297 278 284 315 269 206 186 197 212 217 216 218 229 233 242 237 220 212 196 188 183 183 184 185 181 185 187 180 176 176 172 166 168 178 169 165 166 172 168 174 173 177 177 167 167 164 169 172 164 160 160 154 142 141 141 141 147 144 146 148 145 160 176 179 176 171 167 173 176 179 179 180 188 187 182 196 204 204
113 263 267 298 303 306 298 303 302 303 318 253 188 191 205 218 214 218 222 231 234 237 245 241 223 194 179 178 178 181 186 183 184 175 170 172 160 156 159 169 165 175 160 154 167 161 167 155 143 164 167 171 165 169 174 162 161 161 161 157 148 146 151 152 154 154 155 166 175 179 189 191 179 174 177 180 185 185 188 193 188 194 198 205 180
192 226 221 285 284 276 284 292 302 312 316 240 188 189 211 214 205 224 236 236 236 235 226 220 202 188 189 184 182 183 181 185 180 174 163 159 169 162 155 164 162 155 150 147 136 124 124 126 143 140 150 155 172 170 175 164 163 165 166 158 165 161 149 150 156 158 167 168 179 185 186 195 186 180 182 185 188 192 196 198 201 204 207 177 158
201 150 153 235 263 285 299 311 329 325 320 279 206 216 234 215 204 230 240 235 229 224 213 202 191 187 181 177 183 180 179 175 169 160 160 161 154 146 158 164 160 148 131 133 137 145 151 142 137 139 139 144 163 177 167 172 167 169 172 174 170 178 156 147 145 159 166 179 184 181 179 191 187 183 185 189 191 198 201 202 209 204 194 177 167
152 161 118 1 310 327 338 328 331 336 333 318 297 257 274 260 249 268 266 197 198 197 198 203 194 174 171 182 183 180 177 165 170 172 164 161 154 153 146 155 143 137 134 138 142 148 147 151 149 162 163 161 158 169 179 176 174 170 176 186 187 151 166 160 155 168 185 181 174 179 180 182 185 184 187 190 195 199 194 205 204 198 190 176 165
258 312 19 348 311 345 350 354 354 351 349 355 347 324 327 312 303 355 12 147 154 172 148 158 176 171 159 178 176 176 171 171 167 158 157 154 163 161 159 166 158 156 159 161 169 164 165 163 168 165 167 169 171 168 182 186 180 178 181 183 184 177 174 184 185 175 163 162 169 179 178 180 185 186 190 194 198 199 197 206 200 194 183 171 169
18 40 37 5 29 28 22 15 30 17 7 4 7 350 341 322 335 15 332 133 109 101 133 144 131 145 165 153 147 165 167 172 159 164 168 174 166 163 162 163 163 171 171 172 170 169 175 175 174 173 173 174 177 178 178 186 187 184 184 181 178 175 186 184 184 163 136 165 171 164 167 177 180 185 191 197 202 198 200 201 194 183 175 186 178
123 87 52 36 68 78 58 37 40 31 14 10 8 9 350 323 341 356 0 35 73 78 77 95 112 141 127 131 138 137 140 142 157 168 174 168 158 171 172 168 177 184 180 176 172 172 179 177 181 181 177 173 177 179 180 175 182 184 187 182 174 181 185 186 157 147 160 160 163 166 168 175 181 188 191 196 197 191 193 189 183 180 195 191 181
50 42 19 41 52 52 48 43 46 26 19 8 14 22 11 353 358 6 17 30 57 56 61 51 39 63 85 142 159 169 160 157 166 171 172 171 168 176 173 171 184 184 184 185 179 181 184 187 189 182 165 160 177 187 183 179 184 184 182 174 178 178 171 162 151 160 162 166 167 164 171 176 186 194 182 150 157 176 176 186 183 196 200 190 184
68 39 40 62 63 71 61 56 51 27 22 19 21 22 10 9 8 8 3 32 56 42 84 90 87 72 155 185 219 142 161 174 181 181 180 180 185 187 187 188 189 188 183 188 184 187 190 186 188 173 164 171 185 193 194 190 187 181 180 179 177 168 170 175 167 168 162 154 156 167 170 174 143 146 169 194 186 183 183 182 189 186 194 189 180
68 36 46 58 62 66 70 70 55 35 33 33 30 23 14 20 14 12 2 11 41 49 54 62 62 82 102 119 241 182 225 209 188 204 214 200 193 196 201 212 220 200 194 187 187 198 199 194 182 174 173 185 191 200 210 194 185 184 177 166 177 186 177 181 178 150 135 138 150 163 172 174 185 187 184 187 187 188 192 186 185 187 183 183 181
68 69 74 74 61 77 77 73 57 42 40 37 31 23 18 19 13 18 20 37 29 48 55 56 35 52 62 177 199 193 239 247 215 215 221 293 5 3 345 281 226 329 332 317 281 236 220 195 200 209 195 190 196 211 105 164 180 181 191 192 188 159 163 150 156 159 146 149 172 176 185 185 191 189 193 192 192 187 182 185 193 198 191 187 183
87 87 50 54 59 63 79 67 53 39 37 36 38 21 15 9 11 10 31 56 38 18 45 43 19 15 12 334 335 267 217 254 250 244 223 223 218 90 43 24 10 52 62 58 22 264 244 231 221 227 219 277 1 116 155 184 191 198 196 193 183 176 167 163 168 156 166 184 186 190 195 197 200 197 198 195 179 179 188 185 185 183 189 184 183